Montevideo, MN

8:52 AM CDT on September 27, 2016 (GMT -0500)
Montevideo-Chippewa County

Weather History for KMVE - April, 2014

Change the Weather History Date:

Friday, April 11, 2014

  Actual Average Record
Temperature  
Mean Temperature 50 °F -  
Max Temperature 66 °F 54 °F 86 °F (1968)
Min Temperature 35 °F 31 °F 3 °F (2001)
Degree Days  
Heating Degree Days 14    
Moisture  
Dew Point 33 °F    
Average Humidity 53    
Maximum Humidity 87    
Minimum Humidity 26    
Precipitation  
Precipitation 0.00 in - - ()
Sea Level Pressure  
Sea Level Pressure 29.92 in    
Wind  
Wind Speed 5 mph (ESE)    
Max Wind Speed 15 mph    
Max Gust Speed 17 mph    
Visibility 10 miles    
Events Rain    
Averages and records for this station are not official NWS values.
T = Trace of Precipitation, MM = Missing Value Source: NWS Daily Summary

Daily Weather History Graph

Daily Weather History Graph

Search for Another Location

Airport or City:

Trip Planner

Search our weather history database for the weather conditions in past years. The results will help you decide how hot, cold, wet, or windy it might be!

Date:

Astronomy

Apr. 11, 2014 Rise Set
Actual Time 6:45 AM CDT 8:03 PM CDT
Civil Twilight 6:14 AM CDT 8:33 PM CDT
Nautical Twilight 5:38 AM CDT 9:10 PM CDT
Astronomical Twilight 4:59 AM CDT 9:49 PM CDT
Moon 4:36 PM CDT (4/11) 4:50 AM CDT (4/11)
Length of Visible Light 14h 18m
Length of Day
13h 18m
Waxing Gibbous, 87% of the Moon is Illuminated
Apr 11
Waxing Gibbous
Apr 15
Full
Apr 22
Last Quarter
Apr 29
New
May 6
First Quarter

Hourly Weather History & Observations

Time (CDT) Temp. Windchill Dew Point Humidity Pressure Visibility Wind Dir Wind Speed Gust Speed Precip Events Conditions
12:14 AM 42.8 °F - 28.4 °F 57% 29.93 in 10.0 mi Calm Calm - N/A   Mostly Cloudy
12:34 AM 42.8 °F - 26.6 °F 53% 29.93 in 10.0 mi Calm Calm - N/A   Overcast
12:54 AM 41.0 °F - 28.4 °F 61% 29.93 in 10.0 mi Calm Calm - N/A   Overcast
1:14 AM 39.2 °F - 28.4 °F 65% 29.94 in 10.0 mi Calm Calm - N/A   Overcast
1:34 AM 41.0 °F - 28.4 °F 61% 29.94 in 10.0 mi Calm Calm - N/A   Overcast
1:54 AM 42.8 °F - 28.4 °F 57% 29.94 in 10.0 mi Calm Calm - N/A   Overcast
2:14 AM 42.8 °F - 28.4 °F 57% 29.93 in 10.0 mi Calm Calm - N/A   Overcast
2:34 AM 39.2 °F - 28.4 °F 65% 29.93 in 10.0 mi Calm Calm - N/A   Overcast
2:54 AM 39.2 °F 37.0 °F 30.2 °F 70% 29.94 in 10.0 mi North 3.5 mph - N/A   Overcast
3:14 AM 39.2 °F - 26.6 °F 61% 29.96 in 10.0 mi Calm Calm - N/A   Overcast
3:34 AM 39.2 °F 35.0 °F 30.2 °F 70% 29.96 in 10.0 mi NNE 5.8 mph - N/A   Overcast
3:54 AM 42.8 °F 37.5 °F 30.2 °F 61% 29.94 in 10.0 mi NE 9.2 mph - N/A   Overcast
4:14 AM 42.8 °F 37.0 °F 32.0 °F 66% 29.94 in 10.0 mi East 10.4 mph - N/A   Overcast
4:34 AM 42.8 °F 37.0 °F 33.8 °F 70% 29.91 in 10.0 mi SSE 10.4 mph 17.3 mph N/A Rain Light Rain
4:54 AM 39.2 °F 30.8 °F 33.8 °F 81% 29.91 in 10.0 mi South 15.0 mph - N/A   Mostly Cloudy
5:14 AM 41.0 °F 35.2 °F 32.0 °F 70% 29.90 in 10.0 mi South 9.2 mph - N/A   Clear
5:34 AM 39.2 °F 34.2 °F 32.0 °F 75% 29.89 in 10.0 mi SSE 6.9 mph - N/A   Clear
5:54 AM 37.4 °F 33.8 °F 30.2 °F 75% 29.89 in 10.0 mi SE 4.6 mph - N/A   Clear
6:14 AM 35.6 °F 29.9 °F 30.2 °F 81% 29.89 in 10.0 mi East 6.9 mph - N/A   Clear
6:34 AM 35.6 °F 30.7 °F 30.2 °F 81% 29.91 in 10.0 mi East 5.8 mph - N/A   Clear
6:54 AM 35.6 °F 29.2 °F 30.2 °F 81% 29.92 in 10.0 mi ENE 8.1 mph - N/A   Clear
7:14 AM 37.4 °F 32.1 °F 32.0 °F 81% 29.95 in 10.0 mi NE 6.9 mph - N/A   Clear
7:34 AM 37.4 °F 32.8 °F 33.8 °F 87% 29.95 in 10.0 mi ENE 5.8 mph - N/A   Clear
7:54 AM 39.2 °F 37.0 °F 33.8 °F 81% 29.96 in 10.0 mi East 3.5 mph - N/A   Clear
8:14 AM 42.8 °F 37.5 °F 35.6 °F 76% 29.96 in 10.0 mi SE 9.2 mph - N/A   Clear
8:34 AM 44.6 °F 40.7 °F 35.6 °F 71% 29.96 in 10.0 mi ESE 6.9 mph - N/A   Clear
8:54 AM 46.4 °F 41.9 °F 37.4 °F 71% 29.96 in 10.0 mi SE 9.2 mph - N/A   Clear
9:14 AM 46.4 °F 41.5 °F 37.4 °F 71% 29.96 in 10.0 mi SE 10.4 mph - N/A   Clear
9:34 AM 48.2 °F - 37.4 °F 66% 29.96 in 10.0 mi SE 10.4 mph - N/A   Clear
9:54 AM 50.0 °F - 37.4 °F 62% 29.96 in 10.0 mi SE 9.2 mph - N/A   Clear
10:14 AM 51.8 °F - 37.4 °F 58% 29.96 in 10.0 mi SE 10.4 mph - N/A   Clear
10:34 AM 53.6 °F - 37.4 °F 54% 29.96 in 10.0 mi SSE 9.2 mph - N/A   Clear
10:54 AM 55.4 °F - 37.4 °F 51% 29.97 in 10.0 mi South 4.6 mph - N/A   Clear
11:14 AM 57.2 °F - 37.4 °F 48% 29.97 in 10.0 mi SE 4.6 mph - N/A   Clear
11:34 AM 59.0 °F - 37.4 °F 45% 29.98 in 10.0 mi Calm Calm - N/A   Clear
11:54 AM 60.8 °F - 35.6 °F 39% 29.97 in 10.0 mi East 3.5 mph - N/A   Clear
12:14 PM 60.8 °F - 35.6 °F 39% 29.97 in 10.0 mi Calm Calm - N/A   Clear
12:34 PM 62.6 °F - 37.4 °F 39% 29.97 in 10.0 mi North 4.6 mph - N/A   Clear
12:54 PM 62.6 °F - 37.4 °F 39% 29.97 in 10.0 mi NNW 9.2 mph - N/A   Clear
1:14 PM 64.4 °F - 35.6 °F 34% 29.97 in 10.0 mi NNE 5.8 mph - N/A   Clear
1:54 PM 64.4 °F - 32.0 °F 30% 29.96 in 10.0 mi North 4.6 mph - N/A   Clear
2:14 PM 64.4 °F - 28.4 °F 26% 29.95 in 10.0 mi North 4.6 mph - N/A   Clear
2:34 PM 64.4 °F - 30.2 °F 28% 29.95 in 10.0 mi North 9.2 mph - N/A   Clear
2:54 PM 64.4 °F - 30.2 °F 28% 29.94 in 10.0 mi NE 8.1 mph - N/A   Clear
3:14 PM 66.2 °F - 32.0 °F 28% 29.93 in 10.0 mi NE 3.5 mph - N/A   Clear
3:34 PM 66.2 °F - 32.0 °F 28% 29.93 in 10.0 mi WNW 3.5 mph - N/A   Clear
3:54 PM 66.2 °F - 30.2 °F 26% 29.92 in 10.0 mi North 5.8 mph - N/A   Clear
4:14 PM 66.2 °F - 30.2 °F 26% 29.92 in 10.0 mi NNE 3.5 mph - N/A   Clear
4:34 PM 66.2 °F - 32.0 °F 28% 29.91 in 10.0 mi WNW 6.9 mph - N/A   Clear
4:54 PM 66.2 °F - 30.2 °F 26% 29.91 in 10.0 mi NW 5.8 mph - N/A   Clear
5:14 PM 66.2 °F - 30.2 °F 26% 29.89 in 10.0 mi SW 3.5 mph - N/A   Clear
5:34 PM 66.2 °F - 32.0 °F 28% 29.89 in 10.0 mi SSW 3.5 mph - N/A   Clear
5:54 PM 66.2 °F - 30.2 °F 26% 29.88 in 10.0 mi Calm Calm - N/A   Clear
6:14 PM 64.4 °F - 30.2 °F 28% 29.88 in 10.0 mi South 3.5 mph - N/A   Clear
6:34 PM 62.6 °F - 30.2 °F 30% 29.88 in 10.0 mi Calm Calm - N/A   Clear
6:54 PM 60.8 °F - 30.2 °F 31% 29.88 in 10.0 mi Calm Calm - N/A   Clear
7:14 PM 60.8 °F - 35.6 °F 39% 29.88 in 10.0 mi SE 4.6 mph - N/A   Clear
7:34 PM 57.2 °F - 37.4 °F 48% 29.87 in 10.0 mi ESE 5.8 mph - N/A   Clear
7:54 PM 57.2 °F - 35.6 °F 44% 29.87 in 10.0 mi SE 6.9 mph - N/A   Clear
8:14 PM 57.2 °F - 35.6 °F 44% 29.87 in 10.0 mi SE 5.8 mph - N/A   Clear
8:34 PM 55.4 °F - 35.6 °F 47% 29.88 in 10.0 mi SE 10.4 mph - N/A   Scattered Clouds
8:54 PM 55.4 °F - 37.4 °F 51% 29.89 in 10.0 mi SSE 10.4 mph - N/A   Mostly Cloudy
9:14 PM 53.6 °F - 39.2 °F 58% 29.89 in 10.0 mi SE 11.5 mph - N/A   Scattered Clouds
9:34 PM 53.6 °F - 39.2 °F 58% 29.88 in 10.0 mi SSE 11.5 mph - N/A   Mostly Cloudy
9:54 PM 53.6 °F - 39.2 °F 58% 29.88 in 10.0 mi SSE 11.5 mph - N/A   Mostly Cloudy
10:14 PM 51.8 °F - 37.4 °F 58% 29.88 in 10.0 mi South 13.8 mph - N/A   Scattered Clouds
10:34 PM 51.8 °F - 37.4 °F 58% 29.88 in 10.0 mi South 11.5 mph - N/A   Mostly Cloudy
10:54 PM 51.8 °F - 37.4 °F 58% 29.85 in 10.0 mi SSE 11.5 mph - N/A   Mostly Cloudy
11:14 PM 51.8 °F - 37.4 °F 58% 29.83 in 10.0 mi SE 11.5 mph - N/A   Mostly Cloudy
11:34 PM 51.8 °F - 37.4 °F 58% 29.83 in 10.0 mi SSE 11.5 mph - N/A   Mostly Cloudy
11:54 PM 51.8 °F - 37.4 °F 58% 29.83 in 10.0 mi SSE 12.7 mph - N/A   Scattered Clouds